STARLINK-36111

Last updated on Fri Dec 19 2025 00:02:08 GMT+0000 (Coordinated Universal Time)

1 66950U 25286AB 25352.58336806 -.01516426 00000+0 -80206-2 0 9999 2 66950 53.1550 20.9593 0001123 65.2153 95.1854 15.82650522 2936
UTC large
Height (km)
Speed (km/s)
/
Latitude / Longitude
Inclination (degrees)
Orbital Period (minutes)
Azimuth
Elevation
Range (km)
Doppler Factor

Next 0 passes for location: London (51.5072 / 0.1276)

Sorry there are no passes over London.